Regional Weather Roundup
Issued by NWS

Home | Current Version | Previous Version | Text Only | Print | Product List | Glossary Off
Versions: 1 2 3 4 5 6 7 8 9 10 11 12 13 14 15 16 17 18 19 20 21 22 23 24 25 26 27 28 29 30 31 32 33 34 35 36 37 38 39 40 41 42 43 44 45 46 47 48 49 50

000
ASUS43 KFSD 281710
RWRSD

WEATHER ROUNDUP FOR SOUTH DAKOTA
NATIONAL WEATHER SERVICE SIOUX FALLS SD
1100 AM CST WED JAN 28 2015

NOTE: "FAIR" INDICATES FEW OR NO CLOUDS BELOW 12,000 FEET WITH NO
SIGNIFICANT WEATHER AND/OR OBSTRUCTIONS TO VISIBILITY.


SDZ001>005-009-010-012>017-281800-
NORTHWEST AND NORTH CENTRAL SOUTH DAKOTA

CITY           SKY/WX    TMP DP  RH WIND       PRES   REMARKS
BUFFALO          N/A     50  28  42 NW28G37   29.80S
FAITH            N/A     49  29  46 NW20      29.82R
MOBRIDGE       PTSUNNY   39  33  79 NW7       29.74R
$$

SDZ012>016-024>037-041>051-057-063-072>074-281800-
SOUTHWEST AND SOUTH CENTRAL SOUTH DAKOTA

CITY           SKY/WX    TMP DP  RH WIND       PRES   REMARKS
RAPID CTY ARPT CLOUDY    55  26  32 NW29G39   29.86R
PIERRE         MOSUNNY   44  34  67 NW16      29.72S
CUSTER         CLOUDY    48  18  30 VRB5G18   29.92R
ELLSWORTH AFB  CLOUDY    54  26  33 NW28G35   29.87R
PHILIP         PTSUNNY   54  31  41 NW22G29   29.81R
PINE RIDGE     PTSUNNY   53  31  42 W9        29.89R
WINNER         FAIR      55  33  43 NW17      29.74R
$$

SDZ004>011-016>023-039-040-281800-
NORTHEAST SOUTH DAKOTA

CITY           SKY/WX    TMP DP  RH WIND       PRES   REMARKS
ABERDEEN       PTSUNNY   38  32  79 CALM      29.75R
WATERTOWN      CLOUDY    34  30  85 SE14      29.71F WCI  25
SISSETON         N/A     33  32  96 S14       29.76F WCI  23
$$

SDZ017-020-022-023-036>040-048>070-281800-
SOUTHEAST SOUTH DAKOTA

CITY           SKY/WX    TMP DP  RH WIND       PRES   REMARKS
SIOUX FALLS    PTSUNNY   37  32  82 S12       29.75F
HURON          MOSUNNY   37  32  82 SW5       29.72R
CHAMBERLAIN    PTSUNNY   41  35  80 NW9       29.72S
MITCHELL       PTSUNNY   39  33  79 S8        29.72R
YANKTON        PTSUNNY   41  34  75 SE13      29.74F
$$

ABBREVIATIONS USED IN REMARKS
   TC - TEMPERATURE IN CELSIUS
  WCI - WIND CHILL INDEX
   HX - HEAT INDEX
  VSB - VISIBILITY



USA.gov is the U.S. government's official web portal to all federal, state and local government web resources and services.